Location: Unspecified
(35.9148°N, 0.0000°E)
Time: 21:06:16
(UTC+00:00)

OTV 5 (USA 277) - Pass Details

Date: 04 June 2019
Orbit: 310 x 325 km, 54.5° (Epoch: 08 May)

Event Time Altitude Azimuth Distance (km) Brightness Sun altitude
Exits shadow 02:57:35 19° 132° (SE) 850 ? -17.9°
Maximum altitude 02:57:45 19° 127° (SE) 847 ? -17.9°
Drops below altitude 10° 02:59:49 10° 78° (ENE) 1,237 ? -17.6°
Sets 03:02:06 0° 59° (ENE) 2,072 ? -17.3°
